www.pogodaiklimat.ru

Погода и климат >> Архив погоды >> Португалия >> Вила-Реал


ПОГОДА в Вила-Реале

  • Прогноз погоды в Вила-Реале
  • Монитор погоды в Вила-Реале

АРХИВ ПОГОДЫ в Вила-Реале

Время (UTC), дата Ветер
(напр.,м/с)
 
Видим.   Явления Облачность Т
(С)
Тd
(С)
f
(%)
Тe
(С)
Тes
(С)
Комфортность P
(гПа)
Po
(гПа)
Тmin
(С)
Tmax
(С)
R
(мм)
R24
(мм)
S
(см)
10 16.05 З 4-6
{8}
8000 м дымка 9/8 360 м
[Cu Sc Ci fib]
+12.7 +9.1 79 +11 +13 1013.3 948.0
11 16.05 З 5-9
{9}
9000 м дымка 9/8 400 м
[Cu Sc Ci fib]
+13.2 +7.9 70 +11 +13 1013.4 948.2
12 16.05 З 3-7
{10}
10 км дымка 9/8 420 м
[Cu med, cong Ci fib]
+13.7 +8.3 70 +13 +16 1013.3 948.2
13 16.05 З 5-9
{9}
20 км 8/5 450 м
[Cu Sc Ci fib]
+15.9 +9.0 64 +15 +19 1011.7 947.1
14 16.05 З 6-11
{11}
н/о н/о +15.7 +9.4 66 +14 +14 1011.6 947.0
15 16.05 З 5-10
{10}
н/о н/о +15.1 +7.6 61 +14 +14 1011.4 946.6
16 16.05 СЗ 6-11
{11}
н/о н/о +14.8 +7.2 60 +13 +13 1011.8 947.0
17 16.05 СЗ 5-9
{12}
н/о н/о +12.9 +7.4 69 +11 +11 1012.8 947.5
18 16.05 СЗ 5-8
{11}
н/о н/о +12.1 +6.3 68 +10 +10 1013.1 947.6 +16.4
19 16.05 С 3-5
{10}
н/о н/о +12.0 +5.6 65 +11 +11 1013.5 948.0
20 16.05 СЗ 4-7
{9}
н/о н/о +10.9 +4.9 66 +9 +9 1014.4 948.5
21 16.05 С 3-7
{8}
н/о н/о +10.4 +5.0 69 +9 +9 1015.1 949.1
22 16.05 С 1
{6}
н/о н/о +10.0 +4.8 70 +10 +10 1015.6 949.5
23 16.05 З 5
{8}
н/о н/о +9.7 +4.5 70 +7 +7 1015.3 949.1
00 17.05 С 3-5
{8}
н/о н/о +9.6 +4.0 68 +8 +8 1015.1 948.9
01 17.05 СЗ 4-11
{11}
н/о н/о +9.3 +4.0 69 +7 +7 1014.9 948.7
02 17.05 СЗ 5-9
{11}
н/о н/о +9.2 +3.8 69 +6 +6 1014.7 948.5
03 17.05 СЗ 4-11
{11}
н/о н/о +9.1 +3.8 69 +6 +6 1015.1 948.8
04 17.05 СЗ 4-7
{8}
н/о н/о +8.9 +4.0 71 +6 +6 1015.0 948.7
05 17.05 З 5-9
{9}
н/о н/о +8.8 +3.7 70 +6 +6 1015.3 948.9
06 17.05 СЗ 5-9
{10}
н/о н/о +8.9 +4.3 73 +6 +6 1015.7 949.3 +8.5
07 17.05 З 4-7
{9}
н/о н/о +9.5 +4.7 72 +7 +7 1016.1 949.8
08 17.05 СЗ 5-8
{8}
20 км 10/5 450 м
[Cu med, cong Cs]
+10.5 +4.6 67 +8 +9 1016.1 950.1
09 17.05 СЗ 3-7
{9}
20 км 10/6 500 м
[Cu med, cong Ci fib]
+12.2 +4.7 60 +11 +13 1016.4 950.7
10 17.05 З 5-8
{9}
20 км 9/8 540 м
[Cu med, cong Ci fib]
+12.6 +4.7 59 +11 +12 1016.6 951.0
11 17.05 З 3-5
{9}
20 км 9/9 500 м
[Cu med, cong]
+12.6 +4.5 58 +11 +13 1016.5 950.9
12 17.05 З 4-8
{9}
20 км 9/9 500 м
[Cu med, cong Ci fib]
+12.0 +6.1 67 +10 +11 1016.7 950.9
13 17.05 СЗ 3-6
{9}
7000 м слаб. ливневой дождь 9/9 450 м
[Cu med, cong]
+12.5 +6.7 68 +11 +13 1016.1 950.5 0.0
14 17.05 СЗ 4-7
{9}
н/о н/о +13.8 +6.3 61 +12 +12 1015.4 950.1
15 17.05 З 6-10
{10}
н/о н/о +14.7 +4.9 52 +13 +13 1014.8 949.8
16 17.05 СЗ 5-10
{10}
н/о н/о +13.3 +4.6 56 +12 +12 1015.0 949.6
17 17.05 З 5-9
{10}
н/о н/о +14.1 +4.0 51 +13 +13 1014.5 949.4
18 17.05 З 5-8
{9}
н/о н/о +12.0 +3.6 56 +10 +10 1015.2 949.5 +15.3
19 17.05 З 4-7
{10}
н/о н/о +10.8 +4.0 63 +9 +9 1015.7 949.7
20 17.05 З 4-8
{8}
н/о н/о +9.7 +2.9 63 +7 +7 1016.2 950.0
21 17.05 З 4-7
{7}
н/о н/о +9.0 +3.4 68 +6 +6 1016.8 950.4
22 17.05 СЗ 3-6
{7}
н/о н/о +8.3 +3.6 72 +6 +6 1017.3 950.7
23 17.05 З 4-6
{7}
н/о н/о +8.0 +3.1 71 +5 +5 1017.2 950.6
00 18.05 СЗ 2
{6}
н/о н/о +7.5 +3.3 75 +6 +6 1017.5 950.7
01 18.05 З 2 н/о н/о +7.2 +3.0 75 +5 +5 1017.1 950.3
02 18.05 штиль 0 н/о н/о +6.8 +3.4 79 +6 +6 1016.7 949.8
03 18.05 С 1 н/о н/о +7.1 +3.4 77 +6 +6 1016.3 949.5
04 18.05 штиль 0 н/о н/о +5.8 +3.7 86 +5 +5 1016.6 949.5
05 18.05 С 1 н/о н/о +5.4 +3.0 85 +4 +4 1016.5 949.3
06 18.05 штиль 0 н/о н/о +5.1 +3.4 89 +4 +4 1016.6 949.4 +4.7
07 18.05 н/о н/о +8.1 +3.5 73 1016.1 949.5
08 18.05
{6}
н/о н/о +10.3 +3.7 64 1015.6 949.5
09 18.05 З 4-7
{7}
н/о н/о +11.3 +2.7 55 +9 +9 1015.8 949.9
10 18.05 С 2
{8}
н/о н/о +11.1 +3.3 59 +10 +10 1015.7 949.8
11 18.05 З 4-6
{7}
н/о н/о +11.8 +2.7 54 +10 +10 1015.7 950.0
12 18.05 СЗ 5-9
{9}
н/о н/о +12.9 +2.3 48 +11 +11 1015.2 949.8
13 18.05 СЗ 4-7
{9}
н/о н/о +13.7 +2.5 47 +12 +12 1014.8 949.6
14 18.05 З 4-8
{8}
н/о н/о +14.4 +2.8 46 +13 +13 1014.5 949.4
15 18.05 З 4-7
{10}
н/о н/о +14.4 +3.0 46 +13 +13 1014.2 949.2
16 18.05 СЗ 4-7
{9}
н/о н/о +14.0 +4.3 52 +13 +13 1014.2 949.0
17 18.05 З 5-9
{10}
н/о н/о +13.8 +4.9 55 +12 +12 1014.7 949.4
18 18.05 З 4-8
{8}
н/о н/о +13.0 +4.5 56 +11 +11 1014.7 949.3 +16.3
19 18.05
{7}
н/о н/о +11.6 +3.8 59 1015.5 949.7
20 18.05 З 3
{7}
н/о н/о +10.3 +4.5 67 +8 +8 1015.8 949.8
21 18.05 С 3-6
{6}
н/о н/о +9.8 +4.9 72 +8 +8 1016.6 950.4
22 18.05
{6}
н/о н/о +9.0 +4.4 73 1016.7 950.3
23 18.05 Ю 1 н/о н/о +7.6 +4.3 80 +7 +7 1016.9 950.2
00 19.05 штиль 0 н/о н/о +6.7 +4.3 85 +6 +6 1017.0 950.1
01 19.05 штиль 0 н/о н/о +6.1 +4.2 88 +5 +5 1016.9 949.8
02 19.05 штиль 0 н/о н/о +5.6 +4.2 91 +5 +5 1016.8 949.6
03 19.05 штиль 0 н/о н/о +4.6 +3.4 92 +3 +3 1016.9 949.5
04 19.05 штиль 0 н/о н/о +5.0 +4.1 94 +4 +4 1016.8 949.4
05 19.05 В 1 н/о н/о +5.3 +4.6 95 +4 +4 1016.8 949.5
06 19.05 штиль 0 н/о н/о +5.3 +4.8 97 +4 +4 1016.9 949.6 +4.5
07 19.05 штиль 0 н/о н/о +6.8 +5.4 91 +6 +6 1016.7 949.8
08 19.05 н/о н/о +9.1 +5.9 80 1016.2 949.9
09 19.05 С 1 н/о н/о +10.5 +5.0 69 +10 +10 1016.2 950.2
10 19.05 н/о н/о +12.2 +4.1 58 1015.4 949.8
11 19.05 С 1
{5}
н/о н/о +14.1 +4.6 53 +15 +15 1014.8 949.6
12 19.05 С 2
{5}
н/о н/о +15.5 +4.0 46 +16 +16 1014.3 949.5
13 19.05 -6
{7}
н/о н/о +17.5 +4.6 42 1013.4 949.0
14 19.05 З 4-8
{8}
н/о н/о +16.9 +4.2 43 +16 +16 1013.2 948.8
15 19.05 С 3-6
{8}
н/о н/о +17.5 +3.8 40 +18 +18 1013.1 948.8
16 19.05 СЗ 3-7
{7}
н/о н/о +17.6 +4.6 42 +18 +18 1012.9 948.6
17 19.05 СЗ 4-6
{9}
н/о н/о +16.6 +5.6 48 +16 +16 1012.9 948.4
18 19.05 З 3-5
{8}
н/о н/о +15.0 +5.9 54 +14 +14 1013.1 948.3 +17.9
19 19.05 -5
{6}
н/о н/о +14.1 +6.2 59 1013.6 948.5
20 19.05 З 3-6
{6}
н/о н/о +12.4 +6.3 66 +11 +11 1014.3 948.8
21 19.05 С 1
{5}
н/о н/о +10.6 +5.9 73 +10 +10 1015.3 949.3
22 19.05 С 1 н/о н/о +9.3 +5.6 78 +9 +9 1015.8 949.5
23 19.05 н/о н/о +8.5 +5.7 83 1016.0 949.5
00 20.05 С 1 н/о н/о +8.0 +5.4 84 +7 +7 1016.0 949.4
01 20.05 н/о н/о +6.9 +4.9 87 1016.1 949.2
02 20.05 СЗ 1 н/о н/о +7.3 +5.2 87 +6 +6 1015.9 949.2
03 20.05 штиль 0 н/о н/о +7.0 +5.3 89 +6 +6 1015.5 948.7
04 20.05 С 1 н/о н/о +6.9 +5.1 88 +6 +6 1015.5 948.7
05 20.05 С 1 н/о н/о +6.6 +4.8 88 +6 +6 1015.5 948.7
06 20.05 штиль 0 н/о н/о +6.9 +5.1 88 +6 +6 1016.1 949.3 +5.9
07 20.05 штиль 0 н/о н/о +8.5 +5.8 83 +8 +8 1016.2 949.7
08 20.05 С 1 20 км 9/1 400 м
[Cu med, cong Ac und Ci fib]
+10.3 +6.6 78 +10 +13 1015.9 949.8
09 20.05 С 1 20 км 9/3 450 м
[Cu med, cong Ac und Ci fib]
+13.3 +6.7 64 +14 +18 1015.1 949.7
10 20.05
{5}
20 км 9/3 450 м
[Cu med, cong Ac trans Ci fib]
+14.1 +6.9 62 1015.0 949.8
11 20.05 20 км 9/3 450 м
[Cu med, cong Ac trans Ci fib]
+15.5 +6.4 55 1014.6 949.7
12 20.05 С 3-7
{7}
20 км 9/3 480 м
[Cu med, cong Ac As Ci fib]
+16.0 +7.1 55 +16 +22 1014.5 949.8
13 20.05 С 2
{7}
20 км 9/3 480 м
[Cu med, cong Ac As]
+16.5 +6.3 51 +17 +22 1014.0 949.4
14 20.05 З 3-7
{7}
н/о н/о +16.2 +6.7 53 +16 +16 1014.4 949.7
15 20.05 З 3-6
{7}
н/о н/о +16.9 +6.4 50 +17 +17 1014.0 949.5
16 20.05
{6}
н/о н/о +17.2 +7.3 52 1013.8 949.3
17 20.05 С 3-5
{6}
н/о н/о +17.8 +6.4 47 +18 +18 1013.5 949.2
18 20.05 СЗ 3-6
{8}
н/о н/о +17.2 +7.6 53 +17 +17 1013.6 949.2 +18.7
19 20.05 З 4-6
{7}
н/о н/о +15.8 +7.3 57 +15 +15 1014.3 949.5
20 20.05
{6}
н/о н/о +13.5 +6.3 62 1015.4 950.1
21 20.05 С 1 н/о н/о +12.7 +5.5 62 +13 +13 1016.3 950.8
22 20.05 З 4-7
{7}
н/о н/о +12.1 +5.0 62 +10 +10 1016.3 950.7
23 20.05 С 1 н/о н/о +10.7 +5.2 69 +11 +11 1016.7 950.7
00 21.05 С 1 н/о н/о +9.9 +4.8 71 +10 +10 1016.9 950.6
01 21.05 штиль 0 н/о н/о +9.2 +4.7 73 +9 +9 1016.8 950.5
02 21.05 штиль 0 н/о н/о +8.7 +4.4 74 +8 +8 1016.9 950.4
03 21.05 штиль 0 н/о н/о +7.7 +4.2 78 +7 +7 1017.2 950.4
04 21.05 С 1 н/о н/о +7.0 +3.9 81 +6 +6 1017.2 950.3
05 21.05 штиль 0 н/о н/о +6.9 +3.7 80 +6 +6 1017.5 950.6
06 21.05 СВ 1 н/о н/о +8.0 +4.6 79 +7 +7 1017.5 950.8 +6.8
07 21.05 штиль 0 н/о н/о +11.5 +6.2 70 +11 +11 1017.2 951.3
08 21.05 штиль 0 20 км ясно +14.1 +7.6 65 +14 +21 1016.8 951.5
09 21.05 С 1 20 км ясно +15.6 +7.4 58 +16 +28 опасность
простуды
1016.5 951.5
10 21.05 20 км 1/1 450 м
[Cu med, cong]
+17.0 +7.8 55 1016.0 951.4
11 21.05
{5}
20 км 1/1 450 м
[Cu med, cong]
+19.4 +8.7 50 1015.3 951.3
12 21.05 С 1 20 км 1/1 450 м
[Cu med, cong]
+20.4 +7.7 44 +23 +43 комфорт 1014.9 951.0
13 21.05 С 2 20 км 3/3 450 м
[Cu med, cong]
+21.7 +8.3 42 +23 +36 комфорт 1014.4 950.9
14 21.05 н/о н/о +20.9 +7.9 43 1014.5 950.7
15 21.05 С 1 н/о н/о +22.8 +8.6 40 +24 +24 комфорт 1013.8 950.6
16 21.05
{6}
н/о н/о +23.6 +9.1 40 1013.3 950.2
17 21.05
{5}
н/о н/о +23.7 +9.6 41 1013.2 950.1
18 21.05 С 3
{5}
н/о н/о +22.9 +9.8 43 +25 +25 комфорт 1013.5 950.3 +24.2
19 21.05 С 3-6
{8}
н/о н/о +19.5 +11.2 59 +21 +21 комфорт 1015.0 951.0
20 21.05 ЮЗ 2
{5}
н/о н/о +17.2 +10.4 64 +18 +18 1015.9 951.4
21 21.05 С 1 н/о н/о +15.1 +10.2 73 +16 +16 1017.0 951.9
22 21.05 н/о н/о +14.2 +9.6 74 1017.6 952.2
23 21.05 н/о н/о +13.2 +9.5 78 1017.9 952.4
00 22.05 штиль 0 н/о н/о +13.0 +9.2 78 +13 +13 1018.2 952.6
01 22.05 штиль 0 н/о н/о +12.7 +9.0 78 +12 +12 1018.1 952.4
02 22.05 штиль 0 н/о н/о +12.1 +9.1 82 +12 +12 1018.1 952.3
03 22.05 штиль 0 н/о н/о +11.7 +9.1 84 +11 +11 1018.1 952.2
04 22.05 штиль 0 н/о н/о +11.5 +9.2 86 +11 +11 1017.9 952.0
05 22.05 С 1 н/о н/о +11.5 +8.7 83 +11 +11 1018.1 952.2
06 22.05 штиль 0 н/о н/о +11.9 +9.0 82 +11 +11 1018.5 952.6 +10.9
07 22.05 штиль 0 н/о н/о +15.6 +10.0 69 +15 +15 1018.0 953.0
08 22.05 штиль 0 20 км 6/0
[Ci fib]
+17.6 +10.4 63 +18 +24 1017.9 953.3
09 22.05 С 1 20 км 9/0
[Ci fib]
+18.2 +11.5 65 +20 +29 1017.8 953.4
10 22.05 С 1 20 км 9/1 450 м
[Cu med, cong Ci fib]
+19.1 +11.5 61 +21 +33 комфорт 1017.6 953.3
11 22.05 20 км 9/3 450 м
[Cu med, cong Ci fib]
+21.3 +12.1 56 1017.0 953.2
12 22.05 С 1 20 км 9/3 450 м
[Cu med, cong Ci fib]
+23.1 +11.4 48 +25 +39 комфорт 1016.3 952.9
13 22.05
{5}
20 км 5/3 500 м
[Cu med, cong Ci fib]
+24.2 +7.7 35 1015.7 952.5
14 22.05 -6
{6}
н/о н/о +25.2 +10.0 38 1015.0 952.1
15 22.05 З 3-6
{6}
н/о н/о +23.9 +12.7 49 +26 +26 жарко 1015.1 952.0
16 22.05 З 4-6
{7}
н/о н/о +23.3 +13.6 54 +27 +27 душно 1015.1 951.8
17 22.05 З 5-9
{9}
н/о н/о +23.3 +12.9 52 +26 +26 жарко 1015.3 952.0
18 22.05 З 4-7
{9}
н/о н/о +21.9 +11.6 52 +24 +24 комфорт 1015.9 952.3 +26.7
19 22.05 З 4-7
{7}
н/о н/о +19.9 +11.4 58 +21 +21 комфорт 1016.7 952.6
20 22.05 З 4-8
{8}
н/о н/о +17.7 +9.6 59 +17 +17 1017.5 953.0
21 22.05 ЮЗ 3-8
{9}
н/о н/о +16.4 +7.9 57 +16 +16 1018.5 953.6
22 22.05 Ю 3
{5}
н/о н/о +15.0 +7.8 62 +14 +14 1019.0 953.7
23 22.05
{5}
н/о н/о +13.5 +8.7 73 1019.4 953.8
00 23.05 штиль 0 н/о н/о +12.3 +8.5 78 +12 +12 1019.8 954.0
01 23.05 штиль 0 н/о н/о +11.6 +8.3 80 +11 +11 1019.6 953.6
02 23.05 штиль 0 н/о н/о +10.9 +8.0 82 +10 +10 1019.3 953.1
03 23.05 штиль 0 н/о н/о +10.6 +8.0 84 +10 +10 1019.2 953.0
04 23.05 штиль 0 н/о н/о +9.8 +7.9 88 +9 +9 1019.6 953.2
05 23.05 штиль 0 н/о н/о +9.9 +7.8 87 +9 +9 1019.6 953.1
06 23.05 штиль 0 н/о н/о +9.4 +7.8 90 +9 +9 1020.3 953.7 +9.3
07 23.05 штиль 0 н/о н/о +11.0 +9.0 87 +10 +10 1020.3 954.1
08 23.05 20 км 5/1 600 м
[Sc Ac trans Ci fib]
+13.8 +9.7 76 1019.9 954.4
09 23.05 20 км 5/1 600 м
[Sc Ac trans Ci fib]
+16.6 +10.3 66 1019.5 954.5
10 23.05
{5}
20 км 4/1 480 м
[Cu med, cong Ac trans Ci fib]
+18.8 +9.4 54 1018.9 954.4

 

Местоположение метеостанции Вила-Реал (Португалия): широта 41.27 долгота -7.72 высота над уровнем моря 562 м.

В архиве по умолчанию представлена погода в Вила-Реале за последнюю неделю. Архивные данные за месяц целиком и за предыдущие месяцы, начиная с января 2011 года, Вы можете получить, выбрав интересующий диапазон дат из раскрывающегося списка и нажав кнопку "Ввод!".


*Определитесь, кто Вы:
робот инопланетянин человек

Внимание! Время в таблицах - всемирное. Для получения местного времени необходимо прибавить поправку, которая равна 0 ч.

Смотрите также архив погоды в соседних городах и на ближайших метеорологических станциях:

Погода в Визеу (Португалия) (63 км)
Погода в Порту (Португалия) (80 км)
Погода в Оваре (Португалия) (86 км)
Погода в Хинсо-де-Лимии (Испания) (90 км)
Погода в Обсерватории Penhas Douradas (Португалия) (96 км)
Погода в Виана-ду-Каштелу (Португалия) (99 км)
Погода в Брагансе (Португалия) (101 км)
Погода в Витигудино (Испания) (111 км)
Погода в Саэлисес-эль-Чико (Испания) (118 км)
Погода в Оренсе (Испания) (119 км)

Пояснения к столбцам:

Ветер - указаны скорость ветра в м/с - средняя за 10 мин, порывы в срок и между сроками (в фигурных скобках) и направление, откуда дует ветер: С - северный, СВ - северо-восточный, В - восточный, ЮВ - юго-восточный, Ю - южный, ЮЗ - юго-западный, З - западный, СЗ - северо-западный.
Видимость - горизонтальная дальность видимости в метрах или километрах. При видимости от 1 до 10 км при отсутствии осадков обычно наблюдается дымка, при ухудшении видимости до 1 км и менее - туман. В сухую погоду видимость может ухудшаться дымом, пылью или мглою.
Явления - указаны атмосферные явления, наблюдавшиеся в срок или в последний час перед сроком; фигурными скобками обозначены явления, наблюдавшиеся между сроками (за 1-3 часа до срока); квадратными скобками обозначены град или гололедные отложения с указанием их диаметра в мм.
Облачность - указаны через наклонную черту общая и нижняя облачность в баллах и высота нижней границы облаков в метрах; квадратными скобками обозначены формы облаков: Ci - перистые, Cs - перисто-слоистые, Cc - перисто-кучевые, Ac - высококучевые, As - высокослоистые, Sc - слоисто-кучевые, Ns - слоисто-дождевые, Cu - кучевые, Cb - кучево-дождевые. Подробнее классификацию облаков см. в Атласе облаков (PDF).
T - Температура воздуха - температура, измеренная на высоте 2 м над землей.
Td - Температура точки росы - температура, при понижении до которой содержащийся в воздухе водяной пар достигнет насыщения.
f - Относительная влажность воздуха - влажноcть воздуха, измеренная на высоте 2 м над землей.
Te - Эффективная температура - температура, которую ощущает одетый по сезону человек в тени. Характеристика душности погоды. При расчете учитывается влияние влажности воздуха и скорости ветра на теплоощущения человека.
Tes - Эффективная температура на солнце - температура, которую ощущает человек, с поправкой на солнечный нагрев. Характеристика знойности погоды. Зависит от высоты солнца над горизонтом, облачности и скорости ветра. Ночью, в пасмурную погоду, а также при ветре 12 м/с и более поправка равна нулю.
P - Атмосферное давление - приведенное к уровню моря атмосферное давление.
Po - Атмосферное давление - измеренное на уровне метеостанции атмосферное давление.
Tmin - Минимальная температура - минимум температуры воздуха на высоте 2 м над землей.
Tmax - Максимальная температура - максимум температуры воздуха на высоте 2 м над землей.
R - Количество осадков - Количество выпавших осадков за период времени, мм. При наведении курсора мыши на число - период времени, за который выпало указанное количество осадков.
R24 - Количество осадков - Количество выпавших осадков за 24 часа, мм.
S - Снежный покров - Высота снежного покрова, см. При наведении курсора мыши на число - состояние снежного покрова и степень покрытия местности в баллах.